Location: Nelson
(41.2830°S, 173.2830°E)
Time: 05:56:40
(UTC+12:00)

H-2A R/B - Pass Details

Date: 14 May 2021
Orbit: 529 x 651 km, 98.3° (Epoch: 16 June)

Event Time Altitude Azimuth Distance (km) Brightness Sun altitude
Exits shadow 19:33:36 50° 320° (NW) 692 2.9 -25.3°
Drops below altitude 10° 19:36:33 10° 338° (NNW) 1,790 5.2 -25.8°
Sets 19:38:39 0° 340° (NNW) 2,678 6.1 -26.2°
